Location: Beuerbach
(48.1459°N, 10.9174°E)
Time: 01:50:44
(UTC+00:00)

Meteor 1-21 - Pass Details

Date: 06 August 2024
Orbit: 845 x 885 km, 81.2° (Epoch: 09 September)

Event Time Altitude Azimuth Distance (km) Brightness Sun altitude
Rises 23:10:17 0° 359° (N) 3,418 8.7 -25.5°
Reaches altitude 10° 23:13:44 10° 21° (NNE) 2,478 7.5 -25.5°
Maximum altitude 23:17:08 16° 59° (ENE) 2,073 6.5 -25.5°
Drops below altitude 10° 23:20:31 10° 96° (E) 2,473 6.6 -25.5°
Enters shadow 23:21:09 - 101° (E) 2,621 6.6 -25.5°
